Doha, Qatar

9:45 PM AST on February 09, 2016 (GMT +0300)
Doha International

Weather History for OTBD - October, 2012

Change the Weather History Date:

Wednesday, October 17, 2012

  Actual Average Record
Temperature  
Mean Temperature 88 °F -  
Max Temperature 94 °F 89 °F 103 °F (2014)
Min Temperature 81 °F 70 °F 75 °F (1996)
Cooling Degree Days 22    
Growing Degree Days 38 (Base 50)    
Moisture  
Dew Point 70 °F    
Average Humidity 57    
Maximum Humidity 79    
Minimum Humidity 19    
Precipitation  
Precipitation 0.00 in 0.00 in - ()
Sea Level Pressure  
Sea Level Pressure 29.93 in    
Wind  
Wind Speed 4 mph ()    
Max Wind Speed 10 mph    
Max Gust Speed -    
Visibility 6.3 miles    
Events      
Averages and records for this station are not official NWS values.
T = Trace of Precipitation, MM = Missing Value Source: Averaged Metar Reports

Daily Weather History Graph

Daily Weather History Graph

Search for Another Location

Airport or City:

Trip Planner

Search our weather history database for the weather conditions in past years. The results will help you decide how hot, cold, wet, or windy it might be!

Date:

Astronomy

Oct. 17, 2012 Rise Set
Actual Time 5:33 AM AST 5:04 PM AST
Civil Twilight 5:10 AM AST 5:27 PM AST
Nautical Twilight 4:43 AM AST 5:54 PM AST
Astronomical Twilight 4:16 AM AST 6:20 PM AST
Moon 7:23 AM AST (10/17) 6:37 PM AST (10/17)
Length of Visible Light 12h 17m
Length of Day
11h 31m
Waxing Crescent, 5% of the Moon is Illuminated
Oct 17
Waxing Crescent
Oct 22
First Quarter
Oct 29
Full
Nov 7
Last Quarter
Nov 14
New

Hourly Weather History & Observations

Time (AST) Temp. Heat Index Dew Point Humidity Pressure Visibility Wind Dir Wind Speed Gust Speed Precip Events Conditions
12:00 AM 84.2 °F 90.9 °F 73.4 °F 70% 29.92 in - NNW 5.8 mph - N/A   Clear
12:30 AM 84.2 °F 90.9 °F 73.4 °F 70% 29.92 in - NNW 6.9 mph - N/A   Clear
1:00 AM 84.2 °F 89.6 °F 71.6 °F 66% 29.92 in - NNW 6.9 mph - N/A   Clear
1:30 AM 84.2 °F 89.6 °F 71.6 °F 66% 29.92 in - NNW 5.8 mph - N/A   Clear
2:00 AM 84.2 °F 89.6 °F 71.6 °F 66% 29.92 in - NNW 5.8 mph - N/A   Clear
2:30 AM 84.2 °F 89.6 °F 71.6 °F 66% 29.92 in - Variable 2.3 mph - N/A   Clear
3:00 AM 84 °F - 72 °F 60% 29.92 in 7 mi 2.3 mph - -  
3:00 AM 84.2 °F 89.6 °F 71.6 °F 66% 29.92 in - Variable 2.3 mph - N/A   Clear
3:30 AM 84.2 °F 89.6 °F 71.6 °F 66% 29.92 in - NW 4.6 mph - N/A   Clear
4:00 AM 82.4 °F 87.2 °F 71.6 °F 70% 29.92 in - NW 5.8 mph - N/A   Clear
4:30 AM 82.4 °F 87.2 °F 71.6 °F 70% 29.92 in - NNW 4.6 mph - N/A   Clear
5:00 AM 82.4 °F 87.2 °F 71.6 °F 70% 29.92 in - Variable 2.3 mph - N/A   Clear
5:30 AM 82.4 °F 88.2 °F 73.4 °F 74% 29.92 in - Calm Calm - N/A   Clear
6:00 AM 80.6 °F 85.4 °F 73.4 °F 79% 29.95 in - Calm Calm - N/A   Clear
6:30 AM 82.4 °F 88.2 °F 73.4 °F 74% 29.95 in - Variable 2.3 mph - N/A   Clear
7:00 AM 84.2 °F 90.9 °F 73.4 °F 70% 29.95 in - WSW 4.6 mph - N/A   Clear
7:30 AM 86.0 °F 91.8 °F 71.6 °F 62% 29.98 in - West 3.5 mph - N/A   Clear
8:00 AM 86.0 °F 93.4 °F 73.4 °F 66% 29.98 in - WNW 3.5 mph - N/A   Clear
8:30 AM 87.8 °F 95.6 °F 73.4 °F 62% 29.98 in 6.2 mi NW 3.5 mph - N/A   Partly Cloudy
9:00 AM 89 °F - 73 °F 51% 29.99 in 6 mi West 3.5 mph - -   Scattered Clouds
9:00 AM 87.8 °F 95.6 °F 73.4 °F 62% 29.98 in 6.2 mi West 3.5 mph - N/A   Partly Cloudy
9:30 AM 89.6 °F 98.2 °F 73.4 °F 59% 29.98 in 6.2 mi Variable 3.5 mph - N/A   Partly Cloudy
10:00 AM 93.2 °F 100.5 °F 71.6 °F 49% 29.98 in 6.2 mi Variable 2.3 mph - N/A   Partly Cloudy
10:30 AM 89.6 °F 98.2 °F 73.4 °F 59% 29.95 in 6.2 mi North 3.5 mph - N/A   Partly Cloudy
11:00 AM 93.2 °F 102.4 °F 73.4 °F 52% 29.95 in 6.2 mi East 4.6 mph - N/A   Partly Cloudy
11:30 AM 93.2 °F 100.5 °F 71.6 °F 49% 29.95 in 6.2 mi East 6.9 mph - N/A   Partly Cloudy
12:00 PM 93.2 °F 100.5 °F 71.6 °F 49% 29.92 in 6.2 mi East 6.9 mph - N/A   Partly Cloudy
12:30 PM 91.4 °F 96.8 °F 69.8 °F 49% 29.92 in 6.2 mi East 8.1 mph - N/A   Partly Cloudy
1:00 PM 93.2 °F 100.5 °F 71.6 °F 49% 29.92 in 6.2 mi East 9.2 mph - N/A   Partly Cloudy
1:30 PM 93.2 °F 100.5 °F 71.6 °F 49% 29.89 in 6.2 mi East 10.4 mph - N/A   Partly Cloudy
2:00 PM 93.2 °F 97.7 °F 68.0 °F 44% 29.89 in 6.2 mi ENE 8.1 mph - N/A   Partly Cloudy
2:30 PM 93.2 °F 94.1 °F 62.6 °F 36% 29.89 in 6.2 mi ENE 8.1 mph - N/A   Partly Cloudy
3:00 PM 94 °F - 56 °F 19% 29.90 in 7 mi ENE 6.9 mph - -   Scattered Clouds
3:00 PM 93.2 °F 91.9 °F 57.2 °F 30% 29.89 in 6.2 mi ENE 6.9 mph - N/A   Partly Cloudy
3:30 PM 95.0 °F - 50.0 °F 22% 29.89 in - East 6.9 mph - N/A   Clear
4:00 PM 93.2 °F - 51.8 °F 24% 29.89 in - East 9.2 mph - N/A   Clear
4:30 PM 91.4 °F 92.1 °F 62.6 °F 38% 29.89 in - ESE 8.1 mph - N/A   Clear
5:00 PM 89.6 °F 94.7 °F 69.8 °F 52% 29.89 in - ESE 9.2 mph - N/A   Clear
5:30 PM 87.8 °F 93.8 °F 71.6 °F 58% 29.89 in - ESE 5.8 mph - N/A   Clear
6:00 PM 87.8 °F 92.6 °F 69.8 °F 55% 29.89 in - ESE 4.6 mph - N/A   Clear
6:30 PM 87.8 °F 93.8 °F 71.6 °F 58% 29.92 in - Variable 2.3 mph - N/A   Clear
7:00 PM 87.8 °F 93.8 °F 71.6 °F 58% 29.92 in - Variable 2.3 mph - N/A   Clear
7:30 PM 87.8 °F 93.8 °F 71.6 °F 58% 29.92 in - Variable 2.3 mph - N/A   Clear
8:00 PM 87.8 °F 93.8 °F 71.6 °F 58% 29.92 in - Variable 2.3 mph - N/A   Clear
8:30 PM 86.0 °F 91.8 °F 71.6 °F 62% 29.92 in - Variable 1.2 mph - N/A   Clear
9:00 PM 86 °F - 72 °F 55% 29.94 in 6 mi Calm Calm - -  
9:00 PM 86.0 °F 91.8 °F 71.6 °F 62% 29.92 in - Calm Calm - N/A   Clear
9:30 PM 86.0 °F 91.8 °F 71.6 °F 62% 29.92 in - Variable 2.3 mph - N/A   Clear
10:00 PM 86.0 °F 91.8 °F 71.6 °F 62% 29.92 in - Variable 2.3 mph - N/A   Clear
10:30 PM 86.0 °F 93.4 °F 73.4 °F 66% 29.92 in - Calm Calm - N/A   Clear
11:00 PM 86.0 °F 93.4 °F 73.4 °F 66% 29.92 in - Variable 1.2 mph - N/A   Clear
11:30 PM 86.0 °F 91.8 °F 71.6 °F 62% 29.92 in - Variable 2.3 mph - N/A   Clear